KI6IKQ Weather Reports


time (UTC)temp
C
wind
direction
speed
KPH
gust
KPH
rain 1hr
cm
rain 24hr
cm
rain mn
cm
humidity
%
barometer
mb
20260509080903 14 311 1.6 3.2 0.00 0.00 0.00 77 1013.6
20260509080024 14 316 1.6 3.2 0.00 0.00 0.00 77 1013.6
20260509075425 14 305 1.6 3.2 0.00 0.00 0.00 76 1013.6
20260509074524 15 313 1.6 4.8 0.00 0.00 0.00 76 1013.7
20260509073603 15 319 1.6 4.8 0.00 0.00 0.00 75 1013.7
20260509072703 15 304 1.6 3.2 0.00 0.00 0.00 74 1013.7
20260509071803 15 303 1.6 3.2 0.00 0.00 0.00 73 1013.7
20260509070903 15 299 0.0 3.2 0.00 0.00 0.00 72 1013.5
20260509070003 15 295 1.6 3.2 0.00 0.00 0.00 72 1013.5
20260509065403 16 285 1.6 4.8 0.00 0.00 0.00 71 1013.5
20260509064503 16 270 1.6 6.4 0.00 0.00 0.00 71 1013.5
20260509063603 16 256 0.0 4.8 0.00 0.00 0.00 70 1013.5
20260509062703 16 277 0.0 3.2 0.00 0.00 0.00 70 1013.5
20260509061803 16 262 1.6 4.8 0.00 0.00 0.00 70 1013.6
20260509060903 16 259 1.6 8.0 0.00 0.00 0.00 70 1013.5
20260509060003 16 253 1.6 11.3 0.00 0.00 0.00 70 1013.6
20260509055403 16 243 1.6 9.7 0.00 0.00 0.00 70 1013.6
20260509054503 16 248 1.6 6.4 0.00 0.00 0.00 70 1013.7
20260509053603 17 246 1.6 6.4 0.00 0.00 0.00 69 1013.7
20260509052703 17 250 1.6 4.8 0.00 0.00 0.00 68 1013.8
20260509051804 17 246 3.2 6.4 0.00 0.00 0.00 68 1013.8
20260509050903 17 247 3.2 8.0 0.00 0.00 0.00 68 1013.7
20260509050003 17 250 3.2 6.4 0.00 0.00 0.00 68 1013.7
20260509045424 17 249 3.2 6.4 0.00 0.00 0.00 68 1013.7
20260509044524 18 252 1.6 6.4 0.00 0.00 0.00 68 1013.5
20260509043624 18 251 3.2 9.7 0.00 0.00 0.00 67 1013.6
20260509042724 18 244 3.2 9.7 0.00 0.00 0.00 67 1013.6
20260509041824 18 246 3.2 6.4 0.00 0.00 0.00 66 1013.6
20260509040924 19 255 3.2 6.4 0.00 0.00 0.00 65 1013.6
20260509040024 19 255 1.6 4.8 0.00 0.00 0.00 65 1013.4
20260509035424 20 256 3.2 8.0 0.00 0.00 0.00 64 1013.4
20260509034524 20 245 3.2 8.0 0.00 0.00 0.00 63 1013.3
20260509033625 20 245 3.2 9.7 0.00 0.00 0.00 63 1013.3
20260509032703 20 245 3.2 9.7 0.00 0.00 0.00 62 1013.1
20260509031803 21 248 3.2 8.0 0.00 0.00 0.00 60 1013.1
20260509030903 21 246 3.2 9.7 0.00 0.00 0.00 59 1013.1
20260509030003 22 249 3.2 9.7 0.00 0.00 0.00 56 1013.1
20260509025405 22 250 3.2 9.7 0.00 0.00 0.00 55 1013.2
20260509024503 23 253 3.2 11.3 0.00 0.00 0.00 53 1013.0
20260509023603 24 250 4.8 11.3 0.00 0.00 0.00 50 1012.9
20260509022703 25 263 4.8 14.5 0.00 0.00 0.00 50 1013.1
20260509021803 25 276 4.8 12.9 0.00 0.00 0.00 48 1013.1
20260509020903 25 275 4.8 17.7 0.00 0.00 0.00 47 1013.0
20260509020003 26 258 4.8 20.9 0.00 0.00 0.00 45 1013.1
20260509015424 26 258 4.8 20.9 0.00 0.00 0.00 44 1013.0
20260509014503 27 258 4.8 16.1 0.00 0.00 0.00 44 1013.0
20260509013603 27 267 6.4 16.1 0.00 0.00 0.00 41 1013.0
20260509012703 28 281 4.8 14.5 0.00 0.00 0.00 41 1013.0
20260509011803 29 280 6.4 19.3 0.00 0.00 0.00 40 1013.0
20260509010903 29 284 6.4 17.7 0.00 0.00 0.00 40 1012.9
20260509010003 30 299 4.8 16.1 0.00 0.00 0.00 41 1012.9
20260509005424 29 313 6.4 16.1 0.00 0.00 0.00 42 1013.1
20260509004524 29 321 8.0 17.7 0.00 0.00 0.00 47 1013.1
20260509003603 29 319 8.0 17.7 0.00 0.00 0.00 47 1013.1
20260509002704 29 325 9.7 16.1 0.00 0.00 0.00 47 1013.1
20260509001824 30 325 8.0 17.7 0.00 0.00 0.00 47 1013.1
20260509000903 30 311 8.0 17.7 0.00 0.00 0.00 48 1013.1
20260509000003 30 314 8.0 22.5 0.00 0.00 0.00 47 1013.1
20260508235403 29 320 9.7 22.5 0.00 0.00 0.00 46 1013.2
20260508234503 29 324 8.0 16.1 0.00 0.00 0.00 48 1013.4
20260508233604 29 314 8.0 16.1 0.00 0.00 0.00 48 1013.5
20260508232703 29 314 8.0 16.1 0.00 0.00 0.00 49 1013.6
20260508231803 29 324 8.0 20.9 0.00 0.00 0.00 50 1013.6
20260508230924 28 306 8.0 20.9 0.00 0.00 0.00 49 1013.7
20260508230024 28 317 9.7 19.3 0.00 0.00 0.00 49 1014.0
20260508225424 28 315 9.7 17.7 0.00 0.00 0.00 49 1014.1
20260508224524 28 324 8.0 19.3 0.00 0.00 0.00 49 1014.2
20260508223624 29 323 9.7 22.5 0.00 0.00 0.00 48 1014.3
20260508222724 29 318 8.0 20.9 0.00 0.00 0.00 49 1014.4
20260508221803 28 321 9.7 19.3 0.00 0.00 0.00 46 1014.4
20260508220903 28 325 8.0 17.7 0.00 0.00 0.00 48 1014.5
20260508220003 28 324 8.0 17.7 0.00 0.00 0.00 49 1014.7
20260508215403 28 320 8.0 19.3 0.00 0.00 0.00 49 1014.7
20260508214503 28 323 9.7 19.3 0.00 0.00 0.00 48 1014.8
20260508213603 28 318 8.0 17.7 0.00 0.00 0.00 47 1015.0
20260508212703 28 307 8.0 17.7 0.00 0.00 0.00 48 1015.2
20260508211803 27 313 6.4 17.7 0.00 0.00 0.00 48 1015.2
20260508210924 27 320 8.0 17.7 0.00 0.00 0.00 48 1015.2
20260508210024 27 315 8.0 17.7 0.00 0.00 0.00 50 1015.3
20260508205424 27 318 8.0 17.7 0.00 0.00 0.00 49 1015.4
20260508204524 27 319 9.7 17.7 0.00 0.00 0.00 49 1015.5
20260508203624 27 317 8.0 19.3 0.00 0.00 0.00 49 1015.7
20260508202703 26 309 8.0 16.1 0.00 0.00 0.00 50 1015.8
20260508201803 26 308 8.0 16.1 0.00 0.00 0.00 51 1015.9
20260508200903 26 324 6.4 16.1 0.00 0.00 0.00 53 1015.9
20260508200003 25 313 8.0 22.5 0.00 0.00 0.00 52 1015.9
20260508195403 25 321 8.0 22.5 0.00 0.00 0.00 52 1016.0
20260508194503 25 313 6.4 19.3 0.00 0.00 0.00 50 1016.1
20260508193603 25 306 6.4 12.9 0.00 0.00 0.00 50 1016.2
20260508192703 25 331 9.7 19.3 0.00 0.00 0.00 51 1016.2
20260508191803 25 293 6.4 12.9 0.00 0.00 0.00 51 1016.5
20260508190903 25 320 8.0 19.3 0.00 0.00 0.00 49 1016.5
20260508190003 24 305 6.4 14.5 0.00 0.00 0.00 51 1016.5
20260508185403 24 306 6.4 14.5 0.00 0.00 0.00 51 1016.6
20260508184503 23 298 6.4 14.5 0.00 0.00 0.00 52 1016.7
20260508183603 23 288 4.8 14.5 0.00 0.00 0.00 53 1016.6
20260508182703 23 276 4.8 12.9 0.00 0.00 0.00 52 1016.7
20260508181803 22 282 6.4 14.5 0.00 0.00 0.00 52 1016.7
20260508180903 22 269 3.2 11.3 0.00 0.00 0.00 53 1016.8
20260508180003 22 295 6.4 14.5 0.00 0.00 0.00 52 1016.8
20260508175403 22 300 4.8 14.5 0.00 0.00 0.00 54 1016.8
20260508174503 22 298 4.8 12.9 0.00 0.00 0.00 55 1017.0
20260508173603 21 275 4.8 12.9 0.00 0.00 0.00 53 1017.1
20260508172724 21 296 6.4 14.5 0.00 0.00 0.00 56 1017.1
20260508171824 21 297 6.4 12.9 0.00 0.00 0.00 56 1017.1
20260508170924 21 320 6.4 14.5 0.00 0.00 0.00 57 1017.1
20260508170024 20 320 8.0 16.1 0.00 0.00 0.00 59 1017.1
20260508165424 20 312 6.4 16.1 0.00 0.00 0.00 60 1017.1
20260508164524 20 293 6.4 12.9 0.00 0.00 0.00 61 1017.2
20260508163624 19 295 6.4 16.1 0.00 0.00 0.00 62 1017.1
20260508162724 18 294 6.4 16.1 0.00 0.00 0.00 64 1017.2
20260508161824 18 297 6.4 17.7 0.00 0.00 0.00 66 1017.2
20260508160925 17 280 4.8 12.9 0.00 0.00 0.00 68 1017.2
20260508160003 17 250 3.2 12.9 0.00 0.00 0.00 68 1017.2
20260508155404 17 285 4.8 14.5 0.00 0.00 0.00 68 1017.2
20260508154503 16 302 4.8 16.1 0.00 0.00 0.00 71 1017.2
20260508153603 16 274 6.4 16.1 0.00 0.00 0.00 72 1017.2
20260508152704 16 285 4.8 16.1 0.00 0.00 0.00 74 1017.4
20260508151803 15 278 4.8 14.5 0.00 0.00 0.00 76 1017.3
20260508150924 15 283 4.8 14.5 0.00 0.00 0.00 78 1017.2
20260508150004 15 279 4.8 17.7 0.00 0.00 0.00 80 1017.1
20260508145403 14 281 4.8 11.3 0.00 0.00 0.00 81 1017.1
20260508144503 13 303 4.8 16.1 0.00 0.00 0.00 82 1017.0
20260508143603 13 281 3.2 11.3 0.00 0.00 0.00 84 1017.0
20260508142703 13 299 4.8 12.9 0.00 0.00 0.00 85 1016.8
20260508141803 12 292 3.2 9.7 0.00 0.00 0.00 86 1016.7
20260508140903 12 329 3.2 8.0 0.00 0.00 0.00 87 1016.7
20260508140003 11 325 3.2 8.0 0.00 0.00 0.00 88 1016.5
20260508135424 11 314 3.2 8.0 0.00 0.00 0.00 88 1016.5
20260508134503 11 316 1.6 4.8 0.00 0.00 0.00 88 1016.3
20260508133603 11 312 1.6 3.2 0.00 0.00 0.00 88 1016.4
20260508132703 11 305 1.6 3.2 0.00 0.00 0.00 88 1016.3
20260508131803 11 287 1.6 3.2 0.00 0.00 0.00 88 1016.2
20260508130903 11 301 1.6 3.2 0.00 0.00 0.00 87 1016.2
20260508130003 11 306 1.6 4.8 0.00 0.00 0.00 87 1016.3
20260508125424 11 311 1.6 3.2 0.00 0.00 0.00 87 1016.3
20260508124503 11 314 3.2 8.0 0.00 0.00 0.00 87 1016.3
20260508123624 11 293 3.2 9.7 0.00 0.00 0.00 88 1016.4
20260508122724 11 301 1.6 6.4 0.00 0.00 0.00 88 1016.4
20260508121824 11 323 1.6 4.8 0.00 0.00 0.00 88 1016.1
20260508120924 11 311 0.0 3.2 0.00 0.00 0.00 87 1016.0
20260508120024 11 307 1.6 3.2 0.00 0.00 0.00 87 1015.9
20260508115403 11 316 1.6 4.8 0.00 0.00 0.00 87 1016.0
20260508114503 11 306 1.6 4.8 0.00 0.00 0.00 87 1016.0
20260508113603 11 310 1.6 4.8 0.00 0.00 0.00 87 1016.0
20260508112703 11 311 1.6 4.8 0.00 0.00 0.00 87 1015.9
20260508111803 11 300 1.6 6.4 0.00 0.00 0.00 87 1015.9
20260508110903 11 290 1.6 4.8 0.00 0.00 0.00 87 1016.0
20260508110003 11 301 1.6 9.7 0.00 0.00 0.00 87 1015.9
20260508105403 11 305 1.6 6.4 0.00 0.00 0.00 87 1015.9
20260508104503 11 313 1.6 6.4 0.00 0.00 0.00 87 1015.9
20260508103603 12 319 1.6 4.8 0.00 0.00 0.00 87 1015.7
20260508102703 12 320 1.6 4.8 0.00 0.00 0.00 87 1015.7
20260508101803 12 310 1.6 4.8 0.00 0.00 0.00 86 1015.6
20260508100903 12 315 1.6 4.8 0.00 0.00 0.00 86 1015.6
20260508100003 12 329 1.6 4.8 0.00 0.00 0.00 86 1015.6
20260508095404 12 331 0.0 4.8 0.00 0.00 0.00 86 1015.5
20260508094503 12 320 1.6 4.8 0.00 0.00 0.00 86 1015.5
20260508093603 12 312 1.6 6.4 0.00 0.00 0.00 86 1015.5
20260508092703 12 312 1.6 4.8 0.00 0.00 0.00 86 1015.5
20260508091824 12 304 1.6 6.4 0.00 0.00 0.00 87 1015.5
20260508090903 12 286 1.6 6.4 0.00 0.00 0.00 87 1015.4
20260508090024 12 293 1.6 6.4 0.00 0.00 0.00 86 1015.3
20260508085403 12 299 1.6 6.4 0.00 0.00 0.00 86 1015.4
20260508084524 12 296 1.6 4.8 0.00 0.00 0.00 86 1015.4
20260508083603 12 304 1.6 8.0 0.00 0.00 0.00 86 1015.5
20260508082703 12 311 1.6 4.8 0.00 0.00 0.00 85 1015.5
20260508081803 13 314 1.6 6.4 0.00 0.00 0.00 85 1015.5